Location: Sternwarte_Laufen
(47.9344°N, 12.9346°E)
Time: 16:01:27
(UTC+02:00)

ISS - Pass Details

Date: 11 May 2026
Orbit: 414 x 424 km, 51.6° (Epoch: 21 May)

Event Time Altitude Azimuth Distance (km) Brightness Sun altitude
Rises 00:06:19 0° 279° (W) 2,352 0.4 -23.0°
Reaches altitude 10° 00:08:29 10° 287° (WNW) 1,491 -0.6 -23.1°
Maximum altitude 00:11:41 42° 360° (N) 611 -2.5 -23.2°
Enters shadow 00:12:06 39° 22° (NNE) 636 -2.5 -23.2°
